View from above orbital plane
|
View from above satellite
|
Ground track
|
The orbit data is extracted from the following two-line orbital elements,
1 45175U 20011A 20150.22790637 .00161088 00000-0 12714-2 0 9991
2 45175 51.6352 84.5771 0003513 212.6112 336.1404 15.70365447 15992
Epoch (UTC): | 29 May 2020 05:28:11 |
Eccentricity: | 0.0003513 |
inclination: | 51.6352° |
perigee height: | 355 km |
apogee height: | 360 km |
right ascension of ascending node: | 84.5771° |
argument of perigee: | 212.6112° |
revolutions per day: | 15.70365447 |
mean anomaly at epoch: | 336.1404° |
orbit number at epoch: | 1599 |
The dashed part of the orbit path shows where the satellite is in the earth's shadow,
|
|